Volver al catálogo

STARLINK-34687

ActivoComunicacionesVLEO
NORAD 64909·PAYLOAD·🇺🇸 United States

Lanzado Jul 26, 2025 desde Cape Canaveral Space Force Station

Loading…

Próximos Pases (próximas 24 horas)

TLE

ActualizadoSource: CelesTrak SupGP

Época: Sep 15, 2026, 02:42 UTC

1 64909C 25157F   26258.11298611 -.00057453  00000+0 -16976-2 0  2584
2 64909  53.1579 183.0571 0001343  87.3459 295.2254 15.34416553    19

Sigue STARLINK-34687 en tiempo real con AllMySat

Download on the App Store